Epoch 2024 Oct. 17.0 TT = JDT 2460600.5 T 2024 May 30.36766 TT Rudenko q 1.1217376 (2000.0) P Q z -0.0008939 Peri. 50.85801 -0.02258961 -0.53610408 +/-0.0000009 Node 66.32588 +0.35720246 -0.79267809 e 1.0010027 Incl. 67.13015 +0.93375378 +0.29026515 From 1129 observations 2023 Nov. 5-2024 Oct. 5, mean residual 0".6.
m1 = 8.5 + 5 log d + 15.5 log r(t - 10)